Kuiper-00015

operational
NORAD ID: 63731 Int'l Des: 2025-088 Owner: KUIP Country: US Constellation: kuiper
LEOCIRCULAR

Über Kuiper-00015

Beschreibung wird geladen...

Live-Position

3D-Globus wird geladen...

Nächste Überflüge

Höhenverlauf

Altitude vs Time

uPlot chart will show altitude changes over time

Zweizeiliger Elementsatz

1 63731U 25088H 25341.24422094 .00003481 00000-0 46300-3 0 9997
2 63731 51.8978 168.9113 0011226 129.2676 230.9285 14.81942176 33989
Epoch: 7. Dez. 2025 • Age: 15 hours

Aktueller Status

Höhe 624.0 km
Geschwindigkeit 7.56 km/s
Subsatellitenpunkt 51.55°N, 143.53°W
Startdatum 28. Apr. 2025
Alter 0.6 years
Typ internet

Technische Details

Klassifizierung Payload
Masse 490.00 kg
Trockenmasse 490.00 kg
Gesamtmasse 490.00 kg
Länge 1.80 m
Durchmesser 0.70 m
Spannweite 5.00 m
Form Box + 2 pan
Hersteller KUIP
Bus-Typ Kuiper
Phasenstatus In Orbit
Besitzer/Staat KUIP/US

Große Konstellationen

Loading constellations...